Weather History for KVWU - May, 2014

Change the Weather History Date:

Wednesday, May 14, 2014

  Actual Average (KBDE) Record (KBDE)
Temperature  
Mean Temperature 38 °F -  
Max Temperature 41 °F 67 °F 89 °F (1977)
Min Temperature 35 °F 40 °F 23 °F (1945)
Degree Days  
Heating Degree Days 27    
Moisture  
Dew Point 31 °F    
Average Humidity 75    
Maximum Humidity 87    
Minimum Humidity 61    
Precipitation  
Precipitation 0.00 in - - ()
Sea Level Pressure  
Sea Level Pressure 30.21 in    
Wind  
Wind Speed 10 mph (WNW)    
Max Wind Speed 16 mph    
Max Gust Speed 23 mph    
Visibility 10 miles    
Events      
Averages and records for this station are not official NWS values.
T = Trace of Precipitation, MM = Missing Value Source: NWS Daily Summary

Daily Weather History Graph

Daily Weather History Graph

Search for Another Location

Airport or City:

Trip Planner

Search our weather history database for the weather conditions in past years. The results will help you decide how hot, cold, wet, or windy it might be!

Date:

Astronomy

May. 14, 2014 Rise Set
Actual Time 5:40 AM CDT 8:49 PM CDT
Civil Twilight 5:03 AM CDT 9:26 PM CDT
Nautical Twilight 4:14 AM CDT 10:15 PM CDT
Astronomical Twilight 3:14 AM CDT 11:16 PM CDT
Moon 8:53 PM CDT (5/14) 5:43 AM CDT (5/14)
Length of Visible Light 16h 23m
Length of Day
15h 09m
Full, 100% of the Moon is Illuminated
May 14
Full
May 14
Full
May 21
Last Quarter
May 28
New
Jun 5
First Quarter

Hourly Weather History & Observations

Time (CDT) Temp. Windchill Dew Point Humidity Pressure Visibility Wind Dir Wind Speed Gust Speed Precip Events Conditions
12:07 AM 41.0 °F 33.9 °F 35.6 °F 81% 30.08 in 10.0 mi West 12.7 mph 17.3 mph N/A   Clear
12:28 AM 41.0 °F 33.1 °F 33.8 °F 76% 30.08 in 10.0 mi West 15.0 mph 18.4 mph N/A   Clear
12:48 AM 39.2 °F 32.0 °F 32.0 °F 75% 30.09 in 10.0 mi West 11.5 mph 19.6 mph N/A   Clear
1:07 AM 39.2 °F 31.2 °F 32.0 °F 75% 30.09 in 10.0 mi WNW 13.8 mph 17.3 mph N/A   Clear
1:28 AM 37.4 °F 30.3 °F 33.8 °F 87% 30.09 in 10.0 mi West 10.4 mph - N/A   Clear
1:48 AM 39.2 °F 32.0 °F 33.8 °F 81% 30.09 in 10.0 mi West 11.5 mph 18.4 mph N/A   Mostly Cloudy
2:07 AM 39.2 °F 32.5 °F 33.8 °F 81% 30.09 in 10.0 mi West 10.4 mph 17.3 mph N/A   Unknown
2:28 AM 39.2 °F 32.0 °F 33.8 °F 81% 30.10 in 10.0 mi West 11.5 mph 16.1 mph N/A   Mostly Cloudy
2:47 AM 37.4 °F 29.3 °F 33.8 °F 87% 30.11 in 10.0 mi West 12.7 mph 19.6 mph N/A   Mostly Cloudy
3:08 AM 37.4 °F 30.3 °F 33.8 °F 87% 30.11 in 10.0 mi West 10.4 mph - N/A   Scattered Clouds
3:28 AM 37.4 °F 29.3 °F 33.8 °F 87% 30.11 in 10.0 mi West 12.7 mph - N/A   Unknown
4:08 AM 37.4 °F 29.3 °F 33.8 °F 87% 30.12 in 10.0 mi West 12.7 mph 19.6 mph N/A   Overcast
4:27 AM 37.4 °F 30.8 °F 33.8 °F 87% 30.12 in 10.0 mi WNW 9.2 mph - N/A   Overcast
4:48 AM 37.4 °F 30.8 °F 33.8 °F 87% 30.13 in 10.0 mi West 9.2 mph - N/A   Overcast
5:08 AM 35.6 °F 26.6 °F 32.0 °F 87% 30.13 in 10.0 mi West 13.8 mph - N/A   Overcast
5:27 AM 35.6 °F 26.6 °F 30.2 °F 81% 30.14 in 10.0 mi West 13.8 mph 17.3 mph N/A   Scattered Clouds
5:48 AM 35.6 °F 26.2 °F 30.2 °F 81% 30.15 in 10.0 mi West 15.0 mph 19.6 mph N/A   Scattered Clouds
6:08 AM 35.6 °F 26.6 °F 30.2 °F 81% 30.15 in 10.0 mi West 13.8 mph 18.4 mph N/A   Mostly Cloudy
6:27 AM 35.6 °F 26.2 °F 32.0 °F 87% 30.16 in 10.0 mi West 15.0 mph - N/A   Overcast
7:08 AM 35.6 °F 26.6 °F 30.2 °F 81% 30.17 in 10.0 mi West 13.8 mph 20.7 mph N/A   Scattered Clouds
7:27 AM 37.4 °F 28.5 °F 30.2 °F 75% 30.17 in 10.0 mi West 15.0 mph 20.7 mph N/A   Scattered Clouds
7:48 AM 35.6 °F 25.9 °F 30.2 °F 81% 30.18 in 10.0 mi West 16.1 mph 20.7 mph N/A   Mostly Cloudy
8:07 AM 35.6 °F 27.1 °F 30.2 °F 81% 30.18 in 10.0 mi West 12.7 mph 21.9 mph N/A   Overcast
8:27 AM 35.6 °F 26.6 °F 30.2 °F 81% 30.19 in 10.0 mi West 13.8 mph 18.4 mph N/A   Overcast
8:48 AM 35.6 °F 26.6 °F 30.2 °F 81% 30.20 in 10.0 mi WNW 13.8 mph 23.0 mph N/A   Overcast
9:27 AM 37.4 °F 28.9 °F 28.4 °F 70% 30.21 in 10.0 mi West 13.8 mph - N/A   Overcast
9:48 AM 37.4 °F 29.8 °F 30.2 °F 75% 30.21 in 10.0 mi West 11.5 mph 16.1 mph N/A   Overcast
10:07 AM 37.4 °F 30.3 °F 30.2 °F 75% 30.21 in 10.0 mi NW 10.4 mph 18.4 mph N/A   Overcast
10:28 AM 39.2 °F 32.5 °F 28.4 °F 65% 30.22 in 10.0 mi NW 10.4 mph 17.3 mph N/A   Overcast
10:48 AM 37.4 °F 30.3 °F 30.2 °F 75% 30.22 in 10.0 mi West 10.4 mph 16.1 mph N/A   Overcast
11:07 AM 37.4 °F 30.3 °F 30.2 °F 75% 30.23 in 10.0 mi West 10.4 mph - N/A   Overcast
11:48 AM 39.2 °F 32.5 °F 30.2 °F 70% 30.23 in 10.0 mi NW 10.4 mph - N/A   Overcast
12:28 PM 39.2 °F 33.6 °F 30.2 °F 70% 30.24 in 10.0 mi WNW 8.1 mph - N/A   Overcast
12:48 PM 39.2 °F 35.0 °F 30.2 °F 70% 30.25 in 10.0 mi WNW 5.8 mph - N/A   Overcast
1:07 PM 39.2 °F 34.2 °F 30.2 °F 70% 30.25 in 10.0 mi West 6.9 mph - N/A   Overcast
1:28 PM 41.0 °F 36.4 °F 30.2 °F 65% 30.25 in 10.0 mi West 6.9 mph - N/A   Overcast
1:47 PM 39.2 °F 33.6 °F 30.2 °F 70% 30.26 in 10.0 mi West 8.1 mph - N/A   Overcast
2:07 PM 39.2 °F 34.2 °F 30.2 °F 70% 30.26 in 10.0 mi West 6.9 mph - N/A   Overcast
2:28 PM 41.0 °F 37.1 °F 30.2 °F 65% 30.25 in 10.0 mi NW 5.8 mph - N/A   Overcast
2:47 PM 39.2 °F 33.6 °F 30.2 °F 70% 30.26 in 10.0 mi WNW 8.1 mph - N/A   Overcast
3:07 PM 41.0 °F 38.0 °F 32.0 °F 70% 30.26 in 10.0 mi WNW 4.6 mph - N/A   Overcast
3:28 PM 39.2 °F 35.9 °F 32.0 °F 75% 30.27 in 10.0 mi NW 4.6 mph - N/A   Light Drizzle
3:47 PM 41.0 °F 35.2 °F 32.0 °F 70% 30.27 in 10.0 mi WNW 9.2 mph - N/A   Overcast
4:08 PM 41.0 °F 37.1 °F 32.0 °F 70% 30.27 in 10.0 mi WNW 5.8 mph - N/A   Overcast
4:28 PM 41.0 °F 34.7 °F 32.0 °F 70% 30.27 in 10.0 mi WNW 10.4 mph - N/A   Overcast
4:47 PM 39.2 °F 33.6 °F 32.0 °F 75% 30.27 in 10.0 mi WNW 8.1 mph - N/A   Overcast
5:08 PM 41.0 °F 37.1 °F 32.0 °F 70% 30.26 in 10.0 mi WNW 5.8 mph - N/A   Overcast
5:27 PM 41.0 °F 34.7 °F 30.2 °F 65% 30.26 in 10.0 mi WNW 10.4 mph - N/A   Overcast
5:47 PM 41.0 °F 35.2 °F 30.2 °F 65% 30.27 in 10.0 mi WNW 9.2 mph - N/A   Overcast
6:08 PM 41.0 °F 35.2 °F 30.2 °F 65% 30.27 in 10.0 mi NW 9.2 mph - N/A   Overcast
6:47 PM 41.0 °F 38.0 °F 28.4 °F 61% 30.27 in 10.0 mi NW 4.6 mph - N/A   Overcast
7:08 PM 41.0 °F 39.0 °F 28.4 °F 61% 30.26 in 10.0 mi NW 3.5 mph - N/A   Overcast
7:27 PM 41.0 °F 39.0 °F 28.4 °F 61% 30.27 in 10.0 mi North 3.5 mph - N/A   Overcast
7:48 PM 39.2 °F 35.0 °F 30.2 °F 70% 30.27 in 10.0 mi North 5.8 mph - N/A   Overcast
8:08 PM 39.2 °F 37.0 °F 30.2 °F 70% 30.27 in 10.0 mi North 3.5 mph - N/A   Overcast
8:27 PM 39.2 °F - 30.2 °F 70% 30.27 in 10.0 mi Calm Calm - N/A   Overcast
8:48 PM 39.2 °F - 30.2 °F 70% 30.27 in 10.0 mi Calm Calm - N/A   Overcast
9:08 PM 39.2 °F 37.0 °F 30.2 °F 70% 30.27 in 10.0 mi North 3.5 mph - N/A   Overcast
9:27 PM 39.2 °F 37.0 °F 30.2 °F 70% 30.28 in 10.0 mi NNW 3.5 mph - N/A   Overcast
9:48 PM 37.4 °F 33.8 °F 30.2 °F 75% 30.28 in 10.0 mi NNW 4.6 mph - N/A   Drizzle
10:07 PM 37.4 °F 34.9 °F 30.2 °F 75% 30.29 in 10.0 mi NNW 3.5 mph - N/A   Overcast
10:27 PM 37.4 °F 32.8 °F 30.2 °F 75% 30.29 in 10.0 mi North 5.8 mph - N/A   Overcast
10:48 PM 37.4 °F 34.9 °F 30.2 °F 75% 30.29 in 10.0 mi North 3.5 mph - N/A   Overcast
11:07 PM 37.4 °F 33.8 °F 30.2 °F 75% 30.29 in 10.0 mi North 4.6 mph - N/A   Overcast
11:27 PM 37.4 °F 32.8 °F 30.2 °F 75% 30.29 in 10.0 mi North 5.8 mph - N/A   Overcast
11:48 PM 37.4 °F 33.8 °F 30.2 °F 75% 30.28 in 10.0 mi North 4.6 mph - N/A   Overcast